Location: B Canal
(35.1966°N, 76.7716°W)
Time: 08:05:51
(UTC+00:00)

Daily predictions for brighter satellites

Satellite Brightness Start Highest point End
(mag) Time Altitude Azimuth Time Altitude Azimuth Time Altitude Azimuth
Envisat 3.9 22:14:37 10° ESE 22:18:43 26° ENE 22:22:51 10° NNE
Delta 2 Rocket 3.9 22:14:00 10° W 22:19:32 85° N 22:24:31 10° E
CZ-4C R/B 2.7 22:15:43 10° S 22:20:00 34° ESE 22:24:48 10° NE
Okean O Rocket 2.7 22:16:43 10° S 22:20:56 51° W 22:25:10 10° NNW
STARLINK-55 4.5 22:17:38 10° SSW 22:21:16 34° SE 22:24:55 10° ENE
STARLINK-28 4.4 22:19:16 10° SSW 22:22:57 36° SE 22:26:38 10° ENE
CZ-4B R/B 4.1 22:18:48 10° S 22:23:59 54° W 22:29:19 10° NNW
BREEZE-M DEB (TANK) 3.4 22:22:03 10° NW 22:25:30 22° NNE 22:27:35 10° ENE
STARLINK-53 4.3 22:22:29 10° SSW 22:26:13 38° SE 22:29:58 10° ENE
Cosmos 407 Rocket 4.0 22:21:34 10° SSW 22:26:42 63° WNW 22:31:55 10° N
STARLINK-54 4.2 22:24:06 10° SSW 22:27:52 40° SE 22:31:39 10° ENE
Cosmos 1743 3.2 22:24:19 10° N 22:27:58 38° E 22:31:35 10° SSE
USA 267 4.2 22:22:51 10° E 22:28:11 28° NNE 22:33:32 10° NNW
Lacrosse 5 1.9 22:23:16 10° SSW 22:28:20 77° SE 22:33:26 10° NE
Cosmos 1943 4.1 22:23:40 10° SSE 22:28:29 30° ESE 22:33:17 10° NE
Cosmos 1908 Rocket 3.7 22:24:17 10° N 22:28:39 78° W 22:32:57 10° S
STARLINK-34 4.1 22:27:21 10° SSW 22:31:10 44° SE 22:35:00 10° ENE
Okean 3 4.4 22:27:50 10° SSE 22:31:22 27° E 22:34:55 10° NNE
STARLINK-61 3.5 22:29:43 10° SW 22:33:43 82° SE 22:37:43 10° NE
STARLINK-81 4.1 22:30:30 10° SSW 22:34:17 42° SE 22:37:58 11° ENE
SMAP 3.0 22:31:07 10° SSE 22:35:45 74° ENE 22:40:24 10° N
YAOGAN 1 4.2 22:33:47 10° E 22:35:49 13° ENE 22:37:51 10° NE
STARLINK-24 3.9 22:32:14 10° SSW 22:36:07 49° SE 22:39:48 11° ENE
CORIOLIS 4.2 22:31:55 10° SSE 22:37:17 63° ENE 22:42:40 10° N
STARLINK-77 4.0 22:33:44 10° SSW 22:37:35 46° SE 22:41:08 12° ENE
STARLINK-25 4.0 22:35:23 10° SSW 22:39:14 48° SE 22:42:44 12° ENE
COSMO-SKYMED 1 3.3 22:35:30 10° NNE 22:39:25 33° E 22:43:19 10° SSE
Cosmos 921 Rocket 3.1 22:36:10 10° NNW 22:40:32 84° WSW 22:44:56 10° SSE
STARLINK-71 3.8 22:37:08 10° SSW 22:41:04 57° SE 22:44:35 13° NE
STARLINK-79 3.8 22:38:37 10° SSW 22:42:31 52° SE 22:45:54 13° ENE
STARLINK-78 3.8 22:40:17 10° SSW 22:44:12 55° SE 22:47:32 14° ENE
Cosmos 2369 Rocket 3.0 22:40:31 10° N 22:45:18 28° ENE 22:50:06 10° ESE
STARLINK-57 3.7 22:41:59 10° SSW 22:45:56 60° SE 22:49:14 14° NE
STARLINK-49 3.7 22:43:32 10° SSW 22:47:28 59° SE 22:50:42 15° NE
STARLINK-27 3.6 22:45:09 10° SSW 22:49:07 62° SE 22:52:16 15° NE
SL-16 R/B 3.8 22:44:32 10° SW 22:49:37 33° WNW 22:54:44 10° N
Okean-O 2.7 22:46:16 10° SSE 22:50:34 54° ENE 22:54:54 10° N
STARLINK-74 3.6 22:46:48 10° SW 22:50:45 64° SE 22:53:51 16° NE
OAO 2 Rocket 4.5 22:47:05 10° W 22:51:43 41° SSW 22:56:25 10° SE
STARLINK-39 3.6 22:48:27 10° SW 22:52:25 67° SE 22:55:28 17° NE
STARLINK 3.5 22:50:05 10° SW 22:54:05 70° SE 22:57:03 17° NE
Centaur D-1A AC-31 2.7 22:51:43 10° WSW 22:54:56 36° S 23:03:09 10° ESE
STARLINK-42 3.5 22:51:49 10° SW 22:55:50 78° SE 22:58:47 18° NE
Cosmos 1603 3.7 22:51:21 10° SSW 22:57:02 77° ESE 23:02:47 10° NNE
Cosmos 1461 2.9 22:53:16 10° SSW 22:57:04 52° ESE 22:59:55 17° NE
STARLINK-21 3.5 22:53:25 10° SW 22:57:25 77° SE 23:00:17 18° NE
CZ-3B R/B 2.8 22:55:15 10° SSW 22:57:55 20° SSE 23:01:43 10° ESE
OAO 3 Copernicus 4.3 22:53:42 10° W 22:58:47 89° S 23:02:38 18° E
Cosmos 1943 Rocket 2.4 22:53:49 10° N 22:59:10 43° ENE 23:04:26 10° SE
STARLINK-45 3.5 22:55:14 10° SW 22:59:15 90° ENE 23:02:07 18° NE
SL-4 R/B 4.0 22:58:21 10° N 23:00:09 13° NNE 23:00:33 13° NNE
STARLINK-75 3.5 22:57:01 10° SW 23:01:01 83° NW 23:03:52 19° NE
STARLINK-76 3.5 22:58:20 10° SW 23:02:21 86° SE 23:05:02 20° NE
Cosmos 405 Rocket 3.1 22:59:16 10° N 23:02:45 37° ENE 23:06:16 10° SSE
STARLINK 3.5 22:59:58 10° SW 23:03:59 89° SE 23:06:37 21° NE
STARLINK-32 3.5 23:01:38 10° SW 23:05:39 88° NW 23:08:12 22° NE
YAOGAN 6 2.7 23:03:47 10° SSE 23:07:11 48° ENE 23:10:41 10° N
STARLINK-40 3.5 23:03:17 10° SW 23:07:17 85° NW 23:09:47 22° NE
STARLINK-44 3.5 23:04:56 10° SW 23:08:57 81° NW 23:11:23 23° NE
H-2A R/B 4.2 23:05:39 10° SSW 23:09:06 39° W 23:12:35 10° NNW
NOAA 12 4.2 23:05:21 10° SSE 23:10:38 83° WSW 23:15:56 10° NNW
STARLINK-37 3.6 23:06:44 10° SW 23:10:43 74° NW 23:13:07 23° NE
Cosmos 1655 Rocket 3.9 23:04:32 10° S 23:10:50 78° E 23:17:06 10° N
FengYun 1-2 T 4.2 23:06:19 10° SSE 23:11:41 60° ENE 23:17:06 10° N
STARLINK-36 3.6 23:07:58 10° SW 23:11:59 76° NW 23:14:17 24° NE
CSL-04 Rocket 4.1 23:07:32 10° SE 23:12:18 36° ENE 23:17:06 10° N
STARLINK-41 3.6 23:09:53 10° SW 23:13:53 74° NW 23:16:07 25° NE
STARLINK-64 3.7 23:11:34 10° SW 23:15:33 71° NW 23:17:43 26° NE
STARLINK-35 3.7 23:13:14 10° SW 23:17:13 67° NW 23:19:20 26° NE
STARLINK-51 3.8 23:14:54 10° SW 23:18:53 65° NW 23:20:56 27° NNE
Cosmos 2151 Rocket 3.6 23:15:14 10° N 23:19:32 53° E 23:23:49 10° SSE
STARLINK-30 3.8 23:16:34 10° SW 23:20:32 62° NW 23:22:32 27° NNE
CZ-4 R/B 4.4 23:17:12 10° SSE 23:21:18 62° ENE 23:25:25 10° N
Cosmos 1515 4.1 23:18:19 10° SSW 23:22:02 61° W 23:25:48 10° N
STARLINK-33 3.9 23:18:09 10° WSW 23:22:07 60° NW 23:24:02 28° NNE
Cosmos 1544 3.1 23:20:09 10° N 23:23:41 50° E 23:27:12 10° SSE
STARLINK-50 3.9 23:19:54 10° WSW 23:23:51 57° NW 23:25:42 29° NNE
STARLINK 3.8 23:21:16 10° SW 23:25:15 63° NW 23:26:58 31° NNE
Meteor 2-4 Rocket 3.8 23:19:33 10° S 23:25:26 89° W 23:31:13 10° N
STARLINK-56 4.1 23:23:15 10° WSW 23:27:11 53° NW 23:28:54 30° NNE
SKYMED 2 4.0 23:23:15 10° N 23:27:34 64° WNW 23:31:50 10° SSW
Aureole 3 Rocket 2.3 23:24:33 10° N 23:27:40 87° E 23:31:23 10° S
ADEOS Rocket 4.2 23:30:16 19° ESE 23:30:16 19° ESE 23:32:50 10° SE
Starlink (trailer) 4.1 23:24:55 10° WSW 23:28:50 51° NW 23:30:29 30° NNE
Cosmos 2084 Rocket 3.6 23:25:14 10° SW 23:29:36 73° WNW 23:31:53 28° NNE
STARLINK-38 4.2 23:26:36 10° WSW 23:30:31 49° NW 23:32:06 30° NNE
Cosmos 1867 4.3 23:25:23 10° NW 23:30:42 55° WSW 23:35:57 10° S
STARLINK-65 4.2 23:28:00 10° WSW 23:31:53 48° NW 23:33:25 31° NNE
CZ-4 R/B 1.1 23:30:56 10° SSE 23:34:47 83° E 23:38:39 10° N
Cosmos 2266 Rocket 4.0 23:28:35 10° S 23:34:59 82° E 23:41:23 10° N
CSL-04 Debris 4.1 23:31:40 10° SSE 23:37:02 65° ENE 23:42:24 10° N
NOSS 2-1 (E) 3.4 23:33:44 10° SSW 23:36:45 47° SE 23:36:45 47° SE
STARLINK-69 4.4 23:33:22 10° WSW 23:37:11 42° NW 23:38:31 31° N
Cosmos 405 2.8 23:33:56 10° S 23:37:28 83° E 23:37:58 63° NNE
USA 116 4.2 23:33:40 10° N 23:38:47 84° WNW 23:43:23 10° SSW
STARLINK-66 4.5 23:34:58 10° WSW 23:38:48 42° NW 23:40:03 32° N
S3M 4.0 23:34:30 10° N 23:40:40 80° W 23:46:45 10° S
DMSP B5D1-3 4.4 23:38:22 27° NNE 23:41:09 65° ESE 23:46:11 10° S
BREEZE-M DEB (TANK) 3.8 23:42:25 10° NW 23:44:01 20° NNW 23:44:01 20° NNW
Okean 2 Rocket 4.2 23:41:17 10° NNW 23:45:34 45° W 23:49:52 10° SSW
GPS 2-05 Rocket1 3.9 23:43:03 10° W 23:44:43 32° W 23:44:43 32° W
